CGMPW OEJN-HCMM

Flight info

Callsign CGMPW
Flight time N/A
Altitude 35000
Route RIBAM DCT ULONI DCT SB DCT DTI DCT HARGA DCT SOLUL
Aircraft PC24/L-SBDGIRWY/LB2

Departure

Time 2026-04-29 22:19
Airport King Abdulaziz International Airport (OEJN)

Arrival

Time N/A
Airport Aden Adde International Airport (HCMM)
Time Latitude Longitude Altitude Speed Heading
2026-04-29 21:57 21.69782 39.16256 17 ft 0 kts 66°
2026-04-29 22:10 21.69782 39.16258 17 ft 2 kts 71°
2026-04-29 22:10 21.69727 39.16264 18 ft 13 kts 183°
2026-04-29 22:11 21.69639 39.16263 18 ft 13 kts 175°
2026-04-29 22:11 21.69608 39.16268 18 ft 0 kts 170°
2026-04-29 22:12 21.69578 39.16274 18 ft 12 kts 170°
2026-04-29 22:12 21.69465 39.16231 19 ft 26 kts 243°
2026-04-29 22:13 21.69293 39.16210 19 ft 28 kts 156°
2026-04-29 22:13 21.69238 39.16355 20 ft 26 kts 71°
2026-04-29 22:13 21.69297 39.16529 19 ft 24 kts 70°
2026-04-29 22:13 21.69266 39.16675 20 ft 22 kts 154°
2026-04-29 22:14 21.69128 39.16730 20 ft 20 kts 159°
2026-04-29 22:14 21.68999 39.16783 21 ft 19 kts 159°
2026-04-29 22:14 21.68876 39.16834 21 ft 19 kts 159°
2026-04-29 22:14 21.68758 39.16882 22 ft 17 kts 159°
2026-04-29 22:15 21.68642 39.16928 23 ft 18 kts 160°
2026-04-29 22:15 21.68514 39.16978 23 ft 23 kts 160°
2026-04-29 22:15 21.68362 39.17039 25 ft 24 kts 160°
2026-04-29 22:15 21.68204 39.17102 24 ft 25 kts 160°
2026-04-29 22:16 21.68036 39.17168 25 ft 26 kts 160°
2026-04-29 22:16 21.67861 39.17236 26 ft 27 kts 160°
2026-04-29 22:16 21.67680 39.17307 27 ft 28 kts 160°
2026-04-29 22:16 21.67494 39.17381 28 ft 29 kts 159°
2026-04-29 22:17 21.67303 39.17456 28 ft 30 kts 160°
2026-04-29 22:17 21.67111 39.17532 29 ft 29 kts 159°
2026-04-29 22:17 21.66925 39.17607 30 ft 28 kts 159°
2026-04-29 22:17 21.66745 39.17675 31 ft 26 kts 161°
2026-04-29 22:18 21.66595 39.17763 31 ft 24 kts 109°
2026-04-29 22:18 21.66630 39.17923 32 ft 21 kts 74°
2026-04-29 22:18 21.66711 39.18021 32 ft 22 kts 347°
2026-04-29 22:18 21.67101 39.17867 30 ft 104 kts 340°
2026-04-29 22:19 21.68009 39.17512 245 ft 164 kts 341°
2026-04-29 22:19 21.69125 39.17086 1374 ft 168 kts 341°
2026-04-29 22:19 21.70239 39.16643 2559 ft 182 kts 341°
2026-04-29 22:19 21.71577 39.16252 3253 ft 216 kts 347°
2026-04-29 22:20 21.73155 39.16029 3938 ft 246 kts 352°
2026-04-29 22:20 21.74952 39.16030 4621 ft 274 kts
2026-04-29 22:20 21.76787 39.16903 5020 ft 312 kts 32°
2026-04-29 22:20 21.78198 39.18670 4899 ft 304 kts 62°
2026-04-29 22:21 21.78582 39.20920 4893 ft 312 kts 88°
2026-04-29 22:21 21.78499 39.23216 4900 ft 314 kts 91°
2026-04-29 22:21 21.78414 39.25572 4990 ft 318 kts 89°
2026-04-29 22:21 21.78431 39.27957 4994 ft 318 kts 87°
2026-04-29 22:22 21.78420 39.30349 4990 ft 321 kts 94°
2026-04-29 22:22 21.77917 39.32692 4989 ft 322 kts 108°
2026-04-29 22:22 21.76929 39.34858 4990 ft 323 kts 123°
2026-04-29 22:22 21.75524 39.36676 5085 ft 313 kts 139°
2026-04-29 22:23 21.73838 39.38053 6055 ft 301 kts 150°
2026-04-29 22:23 21.71952 39.38989 6987 ft 297 kts 162°
2026-04-29 22:23 21.70011 39.39754 7930 ft 295 kts 161°
2026-04-29 22:23 21.68098 39.40516 8907 ft 292 kts 162°
2026-04-29 22:24 21.66198 39.41259 9892 ft 289 kts 163°
2026-04-29 22:24 21.64338 39.41984 10789 ft 286 kts 163°
2026-04-29 22:24 21.62465 39.42720 11724 ft 283 kts 163°
2026-04-29 22:24 21.60632 39.43441 12685 ft 278 kts 163°
2026-04-29 22:25 21.58830 39.44148 13673 ft 273 kts 163°
2026-04-29 22:25 21.57063 39.44842 14560 ft 267 kts 163°
2026-04-29 22:25 21.55333 39.45519 15462 ft 261 kts 163°
2026-04-29 22:25 21.53669 39.46172 16371 ft 253 kts 164°
2026-04-29 22:26 21.52039 39.46812 17316 ft 245 kts 164°
2026-04-29 22:26 21.50471 39.47430 18271 ft 234 kts 164°
2026-04-29 22:26 21.48979 39.48024 19117 ft 221 kts 165°
2026-04-29 22:26 21.47581 39.48580 19981 ft 207 kts 166°
2026-04-29 22:27 21.46284 39.49094 20863 ft 190 kts 166°
2026-04-29 22:27 21.45054 39.49579 21554 ft 186 kts 167°
2026-04-29 22:27 21.43878 39.50046 22234 ft 178 kts 168°
2026-04-29 22:27 21.42744 39.50494 22918 ft 171 kts 168°
2026-04-29 22:28 21.41607 39.50939 23373 ft 178 kts 168°
2026-04-29 22:28 21.40389 39.51415 23647 ft 194 kts 168°
2026-04-29 22:28 21.39075 39.51933 23934 ft 208 kts 168°
2026-04-29 22:28 21.37667 39.52491 24221 ft 223 kts 168°
2026-04-29 22:29 21.36683 39.52879 24405 ft 232 kts 168°
2026-04-29 22:29 21.34570 39.53716 24771 ft 251 kts 168°
2026-04-29 22:29 21.32885 39.54382 25034 ft 265 kts 167°
2026-04-29 22:29 21.31109 39.55085 25300 ft 278 kts 167°
2026-04-29 22:30 21.29249 39.55820 25560 ft 291 kts 167°
2026-04-29 22:30 21.27306 39.56588 25820 ft 303 kts 167°
2026-04-29 22:30 21.25312 39.57376 26076 ft 315 kts 167°
2026-04-29 22:30 21.23221 39.58203 26338 ft 325 kts 167°
2026-04-29 22:31 21.21063 39.59054 26593 ft 335 kts 167°
2026-04-29 22:31 21.18847 39.59929 26850 ft 344 kts 167°
2026-04-29 22:31 21.16570 39.60828 27107 ft 352 kts 167°
2026-04-29 22:31 21.14247 39.61744 27358 ft 359 kts 167°
2026-04-29 22:32 21.11879 39.62678 27617 ft 366 kts 167°
2026-04-29 22:32 21.09462 39.63630 27871 ft 372 kts 167°
2026-04-29 22:32 21.07013 39.64597 28131 ft 378 kts 167°
2026-04-29 22:32 21.04525 39.65577 28376 ft 383 kts 167°
2026-04-29 22:33 21.02004 39.66568 28636 ft 388 kts 167°
2026-04-29 22:33 20.99490 39.67556 28889 ft 392 kts 167°
2026-04-29 22:33 20.96913 39.68571 29155 ft 396 kts 167°
2026-04-29 22:33 20.94308 39.69597 29422 ft 400 kts 167°
2026-04-29 22:34 20.91682 39.70628 29692 ft 403 kts 167°
2026-04-29 22:34 20.89039 39.71667 29963 ft 406 kts 168°
2026-04-29 22:34 20.86379 39.72711 30182 ft 408 kts 168°
2026-04-29 22:34 20.83706 39.73762 30410 ft 410 kts 167°
2026-04-29 22:35 20.81019 39.74816 30640 ft 412 kts 167°
2026-04-29 22:35 20.78320 39.75875 30866 ft 414 kts 167°
2026-04-29 22:35 20.75611 39.76936 31077 ft 416 kts 167°
2026-04-29 22:35 20.72884 39.78007 31311 ft 417 kts 167°
2026-04-29 22:36 20.70184 39.79064 31543 ft 419 kts 167°
2026-04-29 22:36 20.67443 39.80139 31782 ft 420 kts 167°
2026-04-29 22:36 20.64698 39.81213 32002 ft 421 kts 167°
2026-04-29 22:36 20.61942 39.82292 32245 ft 422 kts 167°
2026-04-29 22:37 20.59179 39.83373 32488 ft 423 kts 167°
2026-04-29 22:37 20.56414 39.84454 32733 ft 424 kts 166°
2026-04-29 22:37 20.53644 39.85537 32974 ft 424 kts 166°
2026-04-29 22:37 20.50875 39.86620 33222 ft 424 kts 166°
2026-04-29 22:38 20.48096 39.87705 33466 ft 425 kts 166°
2026-04-29 22:38 20.45322 39.88788 33704 ft 425 kts 166°
2026-04-29 22:38 20.42544 39.89873 33950 ft 425 kts 166°
2026-04-29 22:38 20.39761 39.90959 34164 ft 425 kts 166°
2026-04-29 22:39 20.36982 39.92043 34388 ft 425 kts 166°
2026-04-29 22:39 20.34236 39.93114 34611 ft 424 kts 166°
2026-04-29 22:39 20.31462 39.94194 34838 ft 424 kts 166°
2026-04-29 22:39 20.28690 39.95275 35056 ft 423 kts 166°
2026-04-29 22:40 20.26818 39.96004 35212 ft 423 kts 166°
2026-04-29 22:40 20.23159 39.97429 35523 ft 422 kts 166°
2026-04-29 22:40 20.20403 39.98501 35754 ft 421 kts 166°
2026-04-29 22:40 20.17646 39.99573 35858 ft 424 kts 165°
2026-04-29 22:41 20.14862 40.00653 35859 ft 427 kts 165°
2026-04-29 22:41 20.09273 40.02828 35859 ft 428 kts 165°
2026-04-29 22:42 20.03689 40.04996 35852 ft 427 kts 165°
2026-04-29 22:42 19.98113 40.07160 35850 ft 426 kts 165°
2026-04-29 22:43 19.92581 40.09305 35849 ft 425 kts 165°
2026-04-29 22:43 19.87019 40.11460 35852 ft 425 kts 165°
2026-04-29 22:44 19.82364 40.13263 35848 ft 425 kts 165°
2026-04-29 22:44 19.76843 40.15399 35848 ft 425 kts 165°
2026-04-29 22:45 19.71284 40.17548 35848 ft 425 kts 165°
2026-04-29 22:45 19.64776 40.20063 35849 ft 425 kts 165°
2026-04-29 22:46 19.60151 40.21848 35842 ft 425 kts 165°
2026-04-29 22:46 19.54590 40.23994 35849 ft 425 kts 165°
2026-04-29 22:47 19.49062 40.26125 35849 ft 425 kts 165°
2026-04-29 22:47 19.43485 40.28273 35848 ft 425 kts 165°
2026-04-29 22:48 19.37853 40.29920 35857 ft 414 kts 181°
2026-04-29 22:48 19.34993 40.30532 35858 ft 427 kts 166°
2026-04-29 22:48 19.32223 40.31720 35864 ft 432 kts 160°
2026-04-29 22:49 19.26752 40.34307 35863 ft 427 kts 165°
2026-04-29 22:49 19.21093 40.36096 35863 ft 423 kts 169°
2026-04-29 22:50 19.15504 40.38093 35859 ft 424 kts 165°
2026-04-29 22:50 19.09926 40.40037 35860 ft 425 kts 167°
2026-04-29 22:51 19.04271 40.42007 35865 ft 429 kts 166°
2026-04-29 22:51 18.95776 40.44973 35861 ft 428 kts 166°
2026-04-29 22:52 18.90121 40.46949 35855 ft 427 kts 166°
2026-04-29 22:52 18.84476 40.48915 35853 ft 427 kts 166°
2026-04-29 22:53 18.78869 40.50867 35857 ft 427 kts 166°
2026-04-29 22:53 18.73224 40.52831 35850 ft 427 kts 166°
2026-04-29 22:54 18.67576 40.54795 35847 ft 427 kts 166°
2026-04-29 22:54 18.61936 40.56755 35851 ft 427 kts 166°
2026-04-29 22:55 18.56291 40.58715 35847 ft 427 kts 166°
2026-04-29 22:55 18.50639 40.60676 35848 ft 427 kts 166°
2026-04-29 22:56 18.44997 40.62632 35859 ft 426 kts 166°
2026-04-29 22:56 18.39378 40.64579 35855 ft 427 kts 166°
2026-04-29 22:57 18.33733 40.66534 35853 ft 427 kts 166°
2026-04-29 22:57 18.28090 40.68487 35854 ft 427 kts 166°
2026-04-29 22:58 18.22446 40.70438 35853 ft 427 kts 166°
2026-04-29 22:58 18.16834 40.72377 35847 ft 427 kts 166°
2026-04-29 22:59 18.11172 40.74331 35849 ft 430 kts 166°
2026-04-29 22:59 18.05457 40.76304 35854 ft 432 kts 166°
2026-04-29 23:00 17.99776 40.78264 35855 ft 430 kts 166°
2026-04-29 23:00 17.94130 40.80209 35854 ft 428 kts 166°
2026-04-29 23:01 17.88483 40.82154 35850 ft 427 kts 166°
2026-04-29 23:01 17.82783 40.84114 35859 ft 433 kts 166°
2026-04-29 23:02 17.77076 40.86079 35860 ft 430 kts 166°
2026-04-29 23:02 17.71402 40.88028 35856 ft 428 kts 166°
2026-04-29 23:03 17.65730 40.89976 35859 ft 429 kts 166°
2026-04-29 23:03 17.60036 40.91930 35866 ft 431 kts 165°
2026-04-29 23:04 17.54709 40.93759 35861 ft 426 kts 165°
2026-04-29 23:04 17.49404 40.95575 35862 ft 427 kts 165°
2026-04-29 23:05 17.43773 40.97505 35865 ft 428 kts 165°
2026-04-29 23:05 17.38100 40.99447 35865 ft 429 kts 165°
2026-04-29 23:06 17.32427 41.01388 35861 ft 429 kts 165°
2026-04-29 23:06 17.26731 41.03336 35856 ft 430 kts 165°
2026-04-29 23:07 17.21076 41.05268 35856 ft 430 kts 165°
2026-04-29 23:07 17.15375 41.07215 35860 ft 430 kts 165°
2026-04-29 23:08 17.09670 41.09162 35859 ft 430 kts 165°
2026-04-29 23:08 17.04004 41.11094 35855 ft 427 kts 165°
2026-04-29 23:09 16.98406 41.13002 35849 ft 425 kts 164°
2026-04-29 23:09 16.92763 41.14923 35859 ft 428 kts 164°
2026-04-29 23:10 16.87084 41.16856 35862 ft 429 kts 164°
2026-04-29 23:10 16.81450 41.18773 35860 ft 426 kts 164°
2026-04-29 23:11 16.75829 41.20684 35854 ft 424 kts 164°
2026-04-29 23:11 16.70206 41.22591 35858 ft 426 kts 164°
2026-04-29 23:12 16.64544 41.24507 35857 ft 428 kts 164°
2026-04-29 23:12 16.58879 41.26419 35856 ft 427 kts 164°
2026-04-29 23:13 16.53288 41.28466 35832 ft 427 kts 153°
2026-04-29 23:13 16.51019 41.30464 35842 ft 432 kts 130°
2026-04-29 23:13 16.49530 41.33188 35869 ft 436 kts 114°
2026-04-29 23:14 16.47469 41.39153 35860 ft 438 kts 111°
2026-04-29 23:14 16.44992 41.44878 35853 ft 434 kts 123°
2026-04-29 23:15 16.41505 41.49971 35855 ft 431 kts 128°
2026-04-29 23:15 16.38244 41.55236 35859 ft 434 kts 122°
2026-04-29 23:16 16.34979 41.60538 35852 ft 435 kts 125°
2026-04-29 23:16 16.31693 41.65791 35861 ft 435 kts 123°
2026-04-29 23:17 16.28429 41.71076 35857 ft 433 kts 124°
2026-04-29 23:17 16.25157 41.76321 35854 ft 431 kts 124°
2026-04-29 23:18 16.23698 41.79050 35841 ft 434 kts 113°
2026-04-29 23:18 16.22997 41.82107 35846 ft 439 kts 95°
2026-04-29 23:18 16.23223 41.85281 35849 ft 440 kts 76°
2026-04-29 23:18 16.24189 41.88283 35862 ft 437 kts 69°
2026-04-29 23:19 16.26454 41.94151 35859 ft 436 kts 68°
2026-04-29 23:19 16.28636 42.00053 35857 ft 436 kts 69°
2026-04-29 23:20 16.30831 42.05902 35862 ft 436 kts 68°
2026-04-29 23:20 16.33034 42.11807 35862 ft 436 kts 69°
2026-04-29 23:21 16.35230 42.17695 35865 ft 436 kts 68°
2026-04-29 23:21 16.37429 42.23593 35863 ft 436 kts 68°
2026-04-29 23:22 16.39609 42.29450 35860 ft 436 kts 68°
2026-04-29 23:22 16.41806 42.35355 35861 ft 436 kts 68°
2026-04-29 23:23 16.43998 42.41255 35862 ft 436 kts 68°
2026-04-29 23:23 16.46193 42.47167 35856 ft 437 kts 69°
2026-04-29 23:24 16.48383 42.53074 35856 ft 437 kts 69°
2026-04-29 23:24 16.50566 42.58964 35863 ft 437 kts 69°
2026-04-29 23:25 16.52687 42.64849 33747 ft 411 kts 72°
2026-04-29 23:25 16.53724 42.67586 25992 ft 490 kts 57°
2026-04-29 23:25 16.56054 42.70205 22921 ft 472 kts 30°
2026-04-29 23:26 16.58960 42.71017 20828 ft 401 kts
2026-04-29 23:26 16.61707 42.71202 18076 ft 389 kts
2026-04-29 23:26 16.64308 42.71170 15774 ft 366 kts 356°
2026-04-29 23:26 16.66784 42.70940 13810 ft 350 kts 352°
2026-04-29 23:27 16.69134 42.70520 11671 ft 333 kts 347°
2026-04-29 23:27 16.71326 42.69927 9617 ft 318 kts 342°
2026-04-29 23:27 16.73375 42.69176 7448 ft 305 kts 337°
2026-04-29 23:27 16.75280 42.68282 5376 ft 297 kts 332°
2026-04-29 23:28 16.76929 42.67190 4351 ft 258 kts 321°
2026-04-29 23:28 16.78201 42.66032 3611 ft 230 kts 317°
2026-04-29 23:28 16.79344 42.65002 3016 ft 213 kts 323°
2026-04-29 23:28 16.80556 42.64162 2415 ft 206 kts 329°
2026-04-29 23:29 16.81748 42.63422 1933 ft 199 kts 330°
2026-04-29 23:29 16.82884 42.62746 1739 ft 182 kts 330°
2026-04-29 23:29 16.83987 42.62046 1177 ft 189 kts 328°
2026-04-29 23:29 16.85097 42.61394 803 ft 182 kts 334°
2026-04-29 23:30 16.86231 42.60861 518 ft 181 kts 335°
2026-04-29 23:30 16.86960 42.60486 525 ft 161 kts 330°
2026-04-29 23:30 16.87832 42.59945 255 ft 138 kts 327°
2026-04-29 23:30 16.88704 42.59400 109 ft 154 kts 333°
2026-04-29 23:31 16.89551 42.58916 18 ft 104 kts 328°